This is the latest recevied weather packets stored in our database for station/object KN6KS. If no packets are shown the sender has not sent any weather packets the latest 10 day(s).
| Time | Temp. | Humidity | Pressure | Rain* | Wind** | Luminosity | Snow |
|---|---|---|---|---|---|---|---|
| 1778025378 | 16.67° C | 51% | 1011.9 hPa | 0 mm | - | 420 W/m² | - |
| 1778025075 | 16.11° C | 50% | 1011.8 hPa | 0 mm | - | 505 W/m² | - |
| 1778024772 | 16.11° C | 52% | 1011.7 hPa | 0 mm | - | 161 W/m² | - |
| 1778024468 | 16.67° C | 50% | 1011.7 hPa | 0 mm | - | 157 W/m² | - |
| 1778024166 | 17.22° C | 51% | 1011.7 hPa | 0 mm | - | 148 W/m² | - |
| 1778023863 | 16.67° C | 50% | 1011.7 hPa | 0 mm | - | 512 W/m² | - |
| 1778023561 | 16.11° C | 51% | 1011.6 hPa | 0 mm | - | 197 W/m² | - |
| 1778023258 | 16.67° C | 52% | 1011.5 hPa | 0 mm | - | 492 W/m² | - |
| 1778022955 | 16.11° C | 52% | 1011.4 hPa | 0 mm | - | 513 W/m² | - |
| 1778022653 | 16.11° C | 52% | 1011.4 hPa | 0 mm | - | 145 W/m² | - |
| 1778022351 | 16.67° C | 50% | 1011.5 hPa | 0 mm | - | 163 W/m² | - |
| 1778022047 | 17.78° C | 48% | 1011.6 hPa | 0 mm | - | 239 W/m² | - |
| 1778021744 | 17.78° C | 47% | 1011.6 hPa | 0 mm | - | 538 W/m² | - |
| 1778021440 | 16.67° C | 48% | 1011.9 hPa | 0 mm | - | 598 W/m² | - |
| 1778021137 | 17.22° C | 46% | 1011.8 hPa | 0 mm | - | 541 W/m² | - |
| 1778020834 | 17.78° C | 47% | 1011.8 hPa | 0 mm | - | 666 W/m² | - |
| 1778020531 | 17.22° C | 49% | 1011.8 hPa | 0 mm | - | 683 W/m² | - |
| 1778020227 | 17.22° C | 49% | 1012 hPa | 0 mm | - | 550 W/m² | - |
| 1778019924 | 16.67° C | 50% | 1011.8 hPa | 0 mm | - | 585 W/m² | - |
| 1778019620 | 17.22° C | 48% | 1012.1 hPa | 0 mm | - | 649 W/m² | - |
| 1778019317 | 17.22° C | 50% | 1011.9 hPa | 0 mm | - | 678 W/m² | - |
| 1778019014 | 17.22° C | 49% | 1011.9 hPa | 0 mm | - | 580 W/m² | - |
| 1778018711 | 16.67° C | 50% | 1012.1 hPa | 0 mm | - | 316 W/m² | - |
| 1778018409 | 16.67° C | 50% | 1012.1 hPa | 0 mm | - | 265 W/m² | - |
| 1778018107 | 17.22° C | 50% | 1012 hPa | 0 mm | - | 353 W/m² | - |
* Rain latest hour (hover to see other rain measurements)
** Current wind speed in m/s (hover to see current wind gust speed)